SWA2252 PHNL-PHLI

Flight info

Callsign SWA2252
Flight time 0h 24m
Altitude 12000
Route KEOLA3 LIH
Aircraft B38M/M-SDE1FGHILORVWXY/HB1

Departure

Time 2026-04-24 19:19
Airport Daniel K. Inouye International Airport (PHNL)

Arrival

Time 2026-04-24 19:44
Airport Lihue Airport (PHLI)
Time Latitude Longitude Altitude Speed Heading
2026-04-24 18:54 21.33061 -157.92060 26 ft 0 kts 99°
2026-04-24 19:07 21.33064 -157.92083 26 ft 4 kts 99°
2026-04-24 19:07 21.33068 -157.92106 26 ft 4 kts 92°
2026-04-24 19:07 21.33066 -157.92123 26 ft 4 kts 63°
2026-04-24 19:07 21.33041 -157.92140 26 ft 4 kts
2026-04-24 19:08 21.33014 -157.92145 26 ft 4 kts
2026-04-24 19:08 21.32988 -157.92149 26 ft 4 kts
2026-04-24 19:08 21.32961 -157.92153 26 ft 4 kts
2026-04-24 19:08 21.32934 -157.92158 26 ft 4 kts
2026-04-24 19:09 21.32907 -157.92162 26 ft 4 kts
2026-04-24 19:09 21.32880 -157.92166 26 ft 4 kts
2026-04-24 19:09 21.32853 -157.92171 27 ft 4 kts
2026-04-24 19:09 21.32828 -157.92173 27 ft 4 kts 354°
2026-04-24 19:10 21.32802 -157.92166 27 ft 4 kts 333°
2026-04-24 19:10 21.32781 -157.92149 27 ft 4 kts 306°
2026-04-24 19:10 21.32773 -157.92125 27 ft 3 kts 270°
2026-04-24 19:10 21.32773 -157.92102 27 ft 0 kts 270°
2026-04-24 19:13 21.32773 -157.92103 26 ft 1 kts 270°
2026-04-24 19:14 21.32773 -157.92175 27 ft 17 kts 270°
2026-04-24 19:14 21.32743 -157.92251 27 ft 11 kts 200°
2026-04-24 19:14 21.32657 -157.92256 27 ft 13 kts 181°
2026-04-24 19:14 21.32556 -157.92259 27 ft 15 kts 186°
2026-04-24 19:15 21.32447 -157.92290 27 ft 17 kts 196°
2026-04-24 19:15 21.32384 -157.92337 27 ft 0 kts 209°
2026-04-24 19:15 21.32383 -157.92337 27 ft 0 kts 195°
2026-04-24 19:15 21.32381 -157.92335 27 ft 2 kts 156°
2026-04-24 19:16 21.32388 -157.92198 27 ft 17 kts 95°
2026-04-24 19:16 21.32310 -157.92100 26 ft 19 kts 152°
2026-04-24 19:16 21.32195 -157.92047 26 ft 12 kts 190°
2026-04-24 19:17 21.32146 -157.92103 26 ft 11 kts 241°
2026-04-24 19:17 21.32093 -157.92171 26 ft 13 kts 231°
2026-04-24 19:17 21.32037 -157.92254 26 ft 15 kts 235°
2026-04-24 19:17 21.31973 -157.92352 27 ft 16 kts 232°
2026-04-24 19:18 21.31905 -157.92376 27 ft 9 kts 159°
2026-04-24 19:18 21.31866 -157.92332 27 ft 9 kts 115°
2026-04-24 19:18 21.31875 -157.92281 27 ft 9 kts 61°
2026-04-24 19:18 21.31894 -157.92250 27 ft 0 kts 53°
2026-04-24 19:19 21.31939 -157.92187 27 ft 41 kts 53°
2026-04-24 19:19 21.32288 -157.91692 26 ft 123 kts 53°
2026-04-24 19:19 21.32919 -157.90852 344 ft 161 kts 52°
2026-04-24 19:19 21.33632 -157.89828 703 ft 175 kts 57°
2026-04-24 19:20 21.34307 -157.88726 636 ft 179 kts 63°
2026-04-24 19:20 21.34481 -157.87281 1186 ft 210 kts 103°
2026-04-24 19:20 21.33558 -157.86003 2300 ft 232 kts 143°
2026-04-24 19:20 21.31929 -157.85325 3202 ft 268 kts 168°
2026-04-24 19:21 21.30025 -157.85488 4321 ft 292 kts 193°
2026-04-24 19:21 21.28046 -157.86523 4570 ft 346 kts 215°
2026-04-24 19:21 21.26347 -157.88402 4717 ft 343 kts 233°
2026-04-24 19:21 21.25021 -157.90395 5008 ft 317 kts 234°
2026-04-24 19:22 21.24199 -157.91665 5022 ft 307 kts 235°
2026-04-24 19:22 21.22848 -157.94228 4982 ft 289 kts 258°
2026-04-24 19:22 21.22839 -157.96338 4997 ft 285 kts 283°
2026-04-24 19:22 21.23210 -157.98400 5768 ft 281 kts 279°
2026-04-24 19:23 21.23495 -158.00454 7018 ft 280 kts 279°
2026-04-24 19:23 21.23777 -158.02549 7963 ft 287 kts 280°
2026-04-24 19:23 21.24058 -158.04674 8998 ft 288 kts 280°
2026-04-24 19:23 21.24339 -158.06808 10054 ft 291 kts 281°
2026-04-24 19:24 21.24626 -158.09005 10720 ft 305 kts 281°
2026-04-24 19:24 21.24924 -158.11333 11172 ft 326 kts 280°
2026-04-24 19:24 21.25242 -158.13818 11538 ft 346 kts 279°
2026-04-24 19:24 21.25578 -158.16450 11847 ft 366 kts 280°
2026-04-24 19:25 21.25928 -158.19171 11907 ft 377 kts 279°
2026-04-24 19:25 21.26292 -158.21985 11947 ft 383 kts 279°
2026-04-24 19:25 21.26660 -158.24819 11990 ft 384 kts 280°
2026-04-24 19:25 21.27031 -158.27659 12000 ft 384 kts 280°
2026-04-24 19:26 21.27401 -158.30500 12003 ft 384 kts 280°
2026-04-24 19:26 21.27771 -158.33335 11999 ft 383 kts 280°
2026-04-24 19:26 21.28140 -158.36167 11998 ft 384 kts 280°
2026-04-24 19:26 21.28509 -158.39000 11996 ft 384 kts 279°
2026-04-24 19:27 21.28873 -158.41804 11997 ft 384 kts 280°
2026-04-24 19:27 21.29241 -158.44640 11995 ft 384 kts 279°
2026-04-24 19:27 21.29624 -158.47471 11982 ft 383 kts 283°
2026-04-24 19:27 21.30552 -158.50126 11982 ft 379 kts 301°
2026-04-24 19:28 21.31916 -158.52548 11997 ft 379 kts 302°
2026-04-24 19:28 21.33293 -158.54960 11996 ft 379 kts 303°
2026-04-24 19:28 21.34682 -158.57367 12001 ft 380 kts 303°
2026-04-24 19:28 21.36085 -158.59782 12000 ft 379 kts 303°
2026-04-24 19:29 21.38807 -158.64453 12004 ft 357 kts 303°
2026-04-24 19:29 21.40095 -158.66661 12011 ft 341 kts 303°
2026-04-24 19:29 21.41350 -158.68814 12005 ft 339 kts 303°
2026-04-24 19:30 21.42599 -158.70955 11998 ft 338 kts 303°
2026-04-24 19:30 21.43842 -158.73089 12002 ft 338 kts 303°
2026-04-24 19:30 21.45075 -158.75207 12002 ft 328 kts 304°
2026-04-24 19:30 21.46261 -158.77246 11890 ft 316 kts 304°
2026-04-24 19:31 21.47407 -158.79217 11482 ft 306 kts 304°
2026-04-24 19:31 21.48514 -158.81119 11117 ft 295 kts 304°
2026-04-24 19:31 21.49570 -158.82935 10774 ft 286 kts 303°
2026-04-24 19:31 21.50607 -158.84717 10426 ft 277 kts 304°
2026-04-24 19:32 21.51610 -158.86442 10131 ft 268 kts 305°
2026-04-24 19:32 21.52591 -158.88129 9785 ft 266 kts 304°
2026-04-24 19:32 21.53572 -158.89814 9455 ft 265 kts 305°
2026-04-24 19:32 21.54550 -158.91494 9147 ft 264 kts 304°
2026-04-24 19:33 21.55525 -158.93168 8861 ft 267 kts 305°
2026-04-24 19:33 21.56518 -158.94877 8578 ft 272 kts 304°
2026-04-24 19:33 21.57526 -158.96610 8273 ft 274 kts 304°
2026-04-24 19:33 21.58527 -158.98333 7982 ft 276 kts 304°
2026-04-24 19:34 21.59543 -159.00083 7689 ft 277 kts 304°
2026-04-24 19:34 21.60562 -159.01839 7394 ft 276 kts 304°
2026-04-24 19:34 21.61575 -159.03584 7099 ft 275 kts 306°
2026-04-24 19:34 21.62587 -159.05325 6803 ft 274 kts 304°
2026-04-24 19:35 21.63593 -159.07063 6502 ft 273 kts 305°
2026-04-24 19:35 21.64595 -159.08792 6184 ft 272 kts 304°
2026-04-24 19:35 21.65590 -159.10507 5923 ft 267 kts 304°
2026-04-24 19:35 21.66567 -159.12191 5621 ft 264 kts 304°
2026-04-24 19:36 21.67531 -159.13855 5313 ft 261 kts 304°
2026-04-24 19:36 21.68471 -159.15478 5018 ft 257 kts 305°
2026-04-24 19:36 21.69412 -159.17104 4735 ft 253 kts 305°
2026-04-24 19:36 21.70336 -159.18698 4453 ft 249 kts 305°
2026-04-24 19:37 21.71241 -159.20264 4222 ft 243 kts 306°
2026-04-24 19:37 21.72119 -159.21782 4092 ft 233 kts 306°
2026-04-24 19:37 21.72957 -159.23232 3978 ft 224 kts 306°
2026-04-24 19:37 21.73763 -159.24625 3854 ft 215 kts 306°
2026-04-24 19:38 21.74538 -159.25970 3716 ft 208 kts 306°
2026-04-24 19:38 21.75275 -159.27249 3581 ft 201 kts 307°
2026-04-24 19:38 21.76008 -159.28519 3470 ft 198 kts 307°
2026-04-24 19:38 21.76732 -159.29775 3332 ft 197 kts 307°
2026-04-24 19:39 21.77453 -159.31028 3199 ft 196 kts 307°
2026-04-24 19:39 21.78175 -159.32273 3081 ft 195 kts 309°
2026-04-24 19:39 21.79148 -159.33188 2979 ft 181 kts 343°
2026-04-24 19:39 21.80364 -159.33441 2994 ft 179 kts
2026-04-24 19:40 21.81606 -159.33505 2916 ft 180 kts
2026-04-24 19:40 21.82859 -159.33544 2704 ft 180 kts
2026-04-24 19:40 21.84112 -159.33561 2488 ft 179 kts
2026-04-24 19:40 21.85354 -159.33565 2335 ft 178 kts
2026-04-24 19:41 21.86594 -159.33558 2146 ft 179 kts
2026-04-24 19:41 21.87838 -159.33564 1975 ft 177 kts
2026-04-24 19:41 21.89068 -159.33572 1742 ft 171 kts
2026-04-24 19:41 21.90163 -159.33608 1556 ft 149 kts
2026-04-24 19:42 21.91173 -159.33618 1345 ft 143 kts
2026-04-24 19:42 21.92162 -159.33606 1006 ft 141 kts
2026-04-24 19:42 21.93142 -159.33586 821 ft 140 kts
2026-04-24 19:42 21.94124 -159.33584 609 ft 142 kts
2026-04-24 19:43 21.95116 -159.33601 389 ft 142 kts
2026-04-24 19:43 21.96077 -159.33595 206 ft 138 kts
2026-04-24 19:43 21.97011 -159.33594 99 ft 124 kts
2026-04-24 19:43 21.97691 -159.33585 105 ft 64 kts 359°
2026-04-24 19:44 21.97996 -159.33586 105 ft 30 kts 359°
2026-04-24 19:44 21.98132 -159.33606 105 ft 17 kts 329°
2026-04-24 19:44 21.98143 -159.33617 105 ft 2 kts 312°
2026-04-24 19:44 21.98154 -159.33634 105 ft 3 kts 291°
2026-04-24 19:45 21.98156 -159.33668 105 ft 6 kts 274°
2026-04-24 19:45 21.98178 -159.33699 106 ft 6 kts 328°
2026-04-24 19:45 21.98220 -159.33709 106 ft 4 kts 355°
2026-04-24 19:45 21.98257 -159.33712 106 ft 7 kts 355°
2026-04-24 19:46 21.98299 -159.33717 105 ft 0 kts 352°
2026-04-24 19:46 21.98334 -159.33726 104 ft 9 kts 333°
2026-04-24 19:46 21.98381 -159.33772 105 ft 9 kts 311°
2026-04-24 19:47 21.98419 -159.33824 105 ft 0 kts 288°
2026-04-24 19:47 21.98419 -159.33825 105 ft 1 kts 278°
2026-04-24 19:47 21.98406 -159.33855 107 ft 9 kts 231°
2026-04-24 19:47 21.98341 -159.33926 110 ft 18 kts 225°
2026-04-24 19:48 21.98241 -159.34033 117 ft 21 kts 223°
2026-04-24 19:48 21.98136 -159.34146 119 ft 22 kts 225°
2026-04-24 19:48 21.97930 -159.34368 127 ft 21 kts 225°
2026-04-24 19:49 21.97746 -159.34570 144 ft 17 kts 241°
2026-04-24 19:49 21.97752 -159.34630 149 ft 0 kts 316°
2026-04-24 19:50 21.97734 -159.34780 156 ft 14 kts 224°
2026-04-24 19:50 21.97679 -159.34837 156 ft 11 kts 237°
2026-04-24 19:51 21.97704 -159.34899 156 ft 0 kts 315°
2026-04-24 19:51 21.97708 -159.34903 156 ft 0 kts 316°